Date String (YYYY-MM-DD hh:mm:ss) UTC,Instrument flags,absolute air pressure of the measurement (hPa),sample flow rate (lpm),inlet stack bypass flow (lpm),air temperature of the measurement (°C),ambient temperature measured by the external sensor (°C),aerosol sample conditioner tube jacket temperature (°C),OPC LED temperature (°C),internal box temperature (°C),relative humidity of the measurement (%),span deviation,mass concentration of particles derived from Lorenz-Mie calculation of OPC scattering (μg/m³),mass concentration of particles derived from Lorenz-Mie calculation of OPC scattering (μg/m³),mass concentration of particles derived from Lorenz-Mie calculation of OPC scattering (μg/m³)
DateTimeUTC,F1_M11,P_M11,Q1_M11,Q2_M11,T1_M11,T2_M11,T3_M11,T4_M11,T5_M11,U1_M11,ZSPAN_M11,X0_M11,X2_M11,X1_M11
2024-06-01 22:00:00,SystemResetWarning,0827.0,5.01,000.00,029.4,028.1,000.0,037.8,031.0,014.2,0000.0,0010.84,0003.34,0002.51
2024-06-01 22:01:00,SystemResetWarning,0827.0,5.01,000.00,029.5,028.4,000.0,037.8,031.1,014.0,0000.0,0010.03,0003.31,0002.49
2024-06-01 22:02:00,SystemResetWarning,0827.0,5.00,000.00,029.5,028.6,000.0,037.8,031.2,014.4,0000.0,0010.00,0003.30,0002.49
2024-06-01 22:03:00,SystemResetWarning,0827.1,4.99,000.00,029.6,028.8,000.0,037.8,031.3,014.9,0000.0,0010.13,0003.32,0002.49
2024-06-01 22:04:00,SystemResetWarning,0827.1,5.00,000.00,029.6,028.9,000.0,037.8,031.4,014.4,0000.0,0009.66,0003.34,0002.49
2024-06-01 22:05:00,SystemResetWarning,0827.1,5.00,000.00,029.7,029.1,000.0,037.8,031.4,014.7,0000.0,0009.51,0003.35,0002.49
2024-06-01 22:06:00,SystemResetWarning,0827.0,5.00,000.00,029.7,029.2,000.0,037.8,031.5,014.6,0000.0,0009.21,0003.34,0002.49
2024-06-01 22:07:00,SystemResetWarning,0827.1,5.00,000.00,029.8,029.3,000.0,037.9,031.6,013.8,0000.0,0009.07,0003.31,0002.48
2024-06-01 22:08:00,SystemResetWarning,0827.1,5.00,000.00,029.9,029.4,000.0,037.9,031.7,013.8,0000.0,0008.81,0003.30,0002.46
2024-06-01 22:09:00,SystemResetWarning,0827.1,4.99,000.00,029.9,029.0,000.0,038.0,031.4,014.3,0000.0,0008.42,0003.27,0002.42
2024-06-01 22:10:00,SystemResetWarning,0827.0,5.00,000.00,029.6,027.1,000.0,038.0,030.6,014.1,0000.0,0008.60,0003.22,0002.38
2024-06-01 22:11:00,SystemResetWarning,0827.0,5.03,000.00,029.4,026.9,000.0,038.0,030.4,014.6,0000.0,0008.73,0003.23,0002.36
2024-06-01 22:12:00,SystemResetWarning,0827.0,4.99,000.00,029.3,027.2,000.0,037.9,030.5,014.3,0000.0,0008.90,0003.27,0002.37
2024-06-01 22:13:00,SystemResetWarning,0826.9,5.01,000.00,029.3,027.6,000.0,037.9,030.7,014.6,0000.0,0008.84,0003.30,0002.38
2024-06-01 22:14:00,SystemResetWarning,0826.9,5.00,000.00,029.4,027.9,000.0,037.8,030.9,014.4,0000.0,0008.11,0003.32,0002.39
2024-06-01 22:15:00,SystemResetWarning,0826.9,5.00,000.00,029.4,028.2,000.0,037.8,031.0,014.1,0000.0,0007.62,0003.30,0002.39
2024-06-01 22:16:00,SystemResetWarning,0826.9,5.00,000.00,029.5,028.5,000.0,037.8,031.2,014.0,0000.0,0007.68,0003.29,0002.38
2024-06-01 22:17:00,SystemResetWarning,0826.9,4.99,000.00,029.6,028.7,000.0,037.8,031.3,013.7,0000.0,0007.60,0003.25,0002.38
2024-06-01 22:18:00,SystemResetWarning,0826.9,5.00,000.00,029.6,028.9,000.0,037.8,031.4,014.3,0000.0,0007.60,0003.26,0002.37
2024-06-01 22:19:00,SystemResetWarning,0826.8,5.00,000.00,029.7,029.0,000.0,037.8,031.4,014.2,0000.0,0007.58,0003.26,0002.35
2024-06-01 22:20:00,SystemResetWarning,0826.9,5.00,000.00,029.8,029.2,000.0,037.8,031.5,015.0,0000.0,0007.83,0003.28,0002.37
2024-06-01 22:21:00,SystemResetWarning,0826.9,5.01,000.00,029.8,029.3,000.0,037.9,031.6,013.9,0000.0,0008.63,0003.36,0002.38
2024-06-01 22:22:00,SystemResetWarning,0826.9,5.00,000.00,029.9,029.4,000.0,037.9,031.7,013.7,0000.0,0008.19,0003.37,0002.39
2024-06-01 22:23:00,SystemResetWarning,0826.9,4.99,000.00,029.9,028.8,000.0,038.0,031.3,013.7,0000.0,0007.99,0003.35,0002.38
2024-06-01 22:24:00,SystemResetWarning,0826.9,5.00,000.00,029.5,026.4,000.0,038.0,030.1,014.1,0000.0,0008.00,0003.36,0002.36
2024-06-01 22:25:00,SystemResetWarning,0826.8,5.02,000.00,029.1,025.5,000.0,038.0,029.6,015.0,0000.0,0008.07,0003.38,0002.35
2024-06-01 22:26:00,SystemResetWarning,0826.9,4.99,000.00,029.0,026.1,000.0,037.9,029.8,015.8,0000.0,0008.41,0003.40,0002.35
2024-06-01 22:27:00,SystemResetWarning,0826.9,5.00,000.00,029.0,026.5,000.0,037.8,030.1,015.3,0000.0,0008.79,0003.43,0002.33
2024-06-01 22:28:00,SystemResetWarning,0826.9,5.00,000.00,029.0,027.0,000.0,037.7,030.4,015.7,0000.0,0009.02,0003.45,0002.33
2024-06-01 22:29:00,SystemResetWarning,0827.0,4.99,000.00,029.0,027.4,000.0,037.6,030.6,015.8,0000.0,0009.07,0003.45,0002.34
2024-06-01 22:30:00,SystemResetWarning,0827.0,5.01,000.00,029.1,027.8,000.0,037.6,030.7,015.6,0000.0,0009.13,0003.44,0002.35
2024-06-01 22:31:00,SystemResetWarning,0826.9,5.00,000.00,029.2,028.1,000.0,037.6,030.9,015.6,0000.0,0009.16,0003.44,0002.34
2024-06-01 22:32:00,SystemResetWarning,0826.9,5.00,000.00,029.2,028.3,000.0,037.6,031.0,014.4,0000.0,0008.29,0003.39,0002.33
2024-06-01 22:33:00,SystemResetWarning,0826.9,5.00,000.00,029.3,028.5,000.0,037.6,031.1,014.9,0000.0,0008.00,0003.32,0002.32
2024-06-01 22:34:00,SystemResetWarning,0826.8,4.99,000.00,029.4,028.7,000.0,037.6,031.2,015.3,0000.0,0008.56,0003.32,0002.32
2024-06-01 22:35:00,SystemResetWarning,0826.8,5.00,000.00,029.4,028.9,000.0,037.6,031.3,014.1,0000.0,0008.72,0003.32,0002.32
2024-06-01 22:36:00,SystemResetWarning,0826.8,5.01,000.00,029.5,029.0,000.0,037.6,031.3,014.4,0000.0,0008.83,0003.33,0002.32
2024-06-01 22:37:00,SystemResetWarning,0826.8,5.00,000.00,029.6,029.1,000.0,037.7,031.4,013.4,0000.0,0008.81,0003.30,0002.31
2024-06-01 22:38:00,SystemResetWarning,0826.8,5.00,000.00,029.7,029.2,000.0,037.7,031.5,013.2,0000.0,0009.02,0003.33,0002.31
2024-06-01 22:39:00,SystemResetWarning,0826.7,5.00,000.00,029.7,029.3,000.0,037.7,031.6,013.3,0000.0,0009.22,0003.33,0002.30
2024-06-01 22:40:00,SystemResetWarning,0826.6,4.99,000.00,029.8,029.4,000.0,037.8,031.7,013.8,0000.0,0009.30,0003.35,0002.30
2024-06-01 22:41:00,SystemResetWarning,0826.6,4.99,000.00,029.9,029.5,000.0,037.9,031.7,013.9,0000.0,0009.36,0003.38,0002.32
2024-06-01 22:42:00,SystemResetWarning,0826.6,4.99,000.00,029.8,028.0,000.0,038.0,030.9,013.6,0000.0,0010.02,0003.41,0002.33
2024-06-01 22:43:00,SystemResetWarning,0826.5,5.01,000.00,029.3,025.6,000.0,038.0,029.8,014.3,0000.0,0010.29,0003.45,0002.33
2024-06-01 22:44:00,SystemResetWarning,0826.4,5.01,000.00,029.0,025.5,000.0,037.9,029.7,014.6,0000.0,0010.64,0003.45,0002.34
2024-06-01 22:45:00,SystemResetWarning,0826.5,5.00,000.00,028.9,026.1,000.0,037.8,029.9,014.2,0000.0,0010.03,0003.43,0002.35
2024-06-01 22:46:00,SystemResetWarning,0826.5,4.99,000.00,028.9,026.6,000.0,037.7,030.2,014.7,0000.0,0009.88,0003.41,0002.36
2024-06-01 22:47:00,SystemResetWarning,0826.4,5.00,000.00,029.0,027.1,000.0,037.6,030.4,014.7,0000.0,0009.79,0003.39,0002.35
2024-06-01 22:48:00,SystemResetWarning,0826.4,4.99,000.00,029.0,027.5,000.0,037.6,030.6,014.2,0000.0,0010.14,0003.40,0002.37
2024-06-01 22:49:00,SystemResetWarning,0826.3,5.00,000.00,029.1,027.8,000.0,037.5,030.7,014.4,0000.0,0009.55,0003.37,0002.38
2024-06-01 22:50:00,SystemResetWarning,0826.3,5.00,000.00,029.1,028.1,000.0,037.5,030.8,014.1,0000.0,0009.16,0003.38,0002.40
2024-06-01 22:51:00,SystemResetWarning,0826.2,5.00,000.00,029.2,028.3,000.0,037.5,031.0,014.7,0000.0,0009.05,0003.37,0002.41
2024-06-01 22:52:00,SystemResetWarning,0826.2,5.00,000.00,029.3,028.5,000.0,037.5,031.1,014.8,0000.0,0009.07,0003.36,0002.40
2024-06-01 22:53:00,SystemResetWarning,0826.2,5.00,000.00,029.3,028.7,000.0,037.5,031.2,014.6,0000.0,0008.40,0003.33,0002.39
2024-06-01 22:54:00,SystemResetWarning,0826.2,5.00,000.00,029.4,028.9,000.0,037.6,031.2,014.3,0000.0,0007.88,0003.30,0002.40
2024-06-01 22:55:00,SystemResetWarning,0826.2,4.99,000.00,029.5,029.0,000.0,037.6,031.3,014.6,0000.0,0007.59,0003.32,0002.40
2024-06-01 22:56:00,SystemResetWarning,0826.1,5.00,000.00,029.5,029.1,000.0,037.6,031.4,014.5,0000.0,0008.90,0003.40,0002.40
2024-06-01 22:57:00,SystemResetWarning,0826.1,5.00,000.00,029.6,029.2,000.0,037.7,031.4,014.4,0000.0,0009.78,0003.42,0002.39
2024-06-01 22:58:00,SystemResetWarning,0826.0,5.00,000.00,029.7,029.3,000.0,037.7,031.5,014.3,0000.0,0010.43,0003.43,0002.39
2024-06-01 22:59:00,SystemResetWarning,0826.1,5.00,000.00,029.7,029.4,000.0,037.8,031.6,014.1,0000.0,0010.43,0003.45,0002.41
